Theta_e
301 297 295 299 302 302 300 298 298 302 305 303 302 303 305 307 307 307 308 311 314 317 323 326 327 330 330 337 345 348 352 358 358 354 355 352 351 354 355 359 359 359 358 358
298 295 301 303 303 301 300 298 299 302 304 302 303 302 306 307 307 308 309 312 314 316 319 323 326 326 330 339 343 349 353 354 354 353 354 352 352 354 356 355 355 353 352 351
298 300 302 301 300 299 299 298 299 299 302 304 302 301 303 307 308 310 312 315 315 315 317 320 323 327 328 336 338 344 348 353 355 355 348 340 341 340 333 335 334 338 338 338
300 304 301 300 298 300 296 302 300 299 298 295 303 294 301 305 306 308 310 312 313 315 317 320 323 323 328 333 340 344 347 348 349 349 344 340 330 328 327 329 329 332 337 335
298 300 300 298 299 302 298 303 301 300 299 299 299 296 300 304 303 306 309 311 313 316 317 316 320 321 327 335 337 336 336 335 333 337 340 332 333 328 329 333 334 337 337 336
301 305 303 301 302 303 304 301 301 301 299 293 298 297 298 301 303 306 309 312 313 315 317 320 322 325 329 332 331 331 330 329 331 331 334 334 332 329 328 331 329 327 328 329
298 299 303 304 300 303 302 299 292 290 291 290 299 296 298 305 307 308 310 312 314 317 320 321 322 324 324 325 326 326 326 325 325 325 324 323 326 325 323 325 323 324 323 323
293 291 299 303 301 299 299 299 293 286 288 292 299 293 300 307 310 311 312 315 317 319 321 322 322 323 322 323 323 322 323 322 323 322 322 322 321 319 319 321 320 320 320 320
294 294 302 302 304 303 299 296 302 296 296 293 296 299 304 308 308 310 312 314 316 317 319 320 320 321 321 321 320 320 320 320 319 319 320 320 320 320 319 321 322 319 322 319
300 294 300 301 304 305 302 304 295 297 288 287 292 295 297 303 305 309 311 313 315 315 315 316 317 318 318 318 318 319 318 317 316 317 317 317 318 319 319 319 319 319 320 320
303 300 298 303 300 298 299 298 300 300 297 291 289 292 305 304 307 309 311 313 313 314 314 315 315 316 316 316 316 316 316 313 315 314 315 316 316 316 317 317 317 318 319 318
303 300 295 297 303 305 304 301 301 294 293 296 294 293 307 308 310 312 311 312 313 315 314 314 314 314 314 313 313 315 314 313 313 313 314 314 315 316 316 316 317 317 316 317
304 299 293 294 299 303 300 302 303 302 301 294 292 293 305 307 308 311 310 310 311 312 312 312 312 311 311 313 313 312 311 311 312 312 312 313 314 315 315 315 316 315 315 315
307 302 297 291 294 301 297 299 301 301 294 295 296 297 302 305 306 308 308 309 308 309 309 309 310 310 311 310 310 309 310 311 311 311 311 312 312 313 313 314 314 313 313 312
306 298 299 298 298 298 297 298 300 298 299 294 297 297 301 305 307 308 309 309 308 308 308 308 309 309 308 308 308 308 309 310 311 310 310 311 312 312 311 311 312 312 312 311
304 298 299 294 299 298 295 299 300 299 299 299 300 299 305 308 308 308 308 307 307 307 305 306 306 306 306 307 307 308 309 309 309 308 308 310 310 310 309 309 309 310 310 311
300 300 298 292 297 297 292 297 298 299 301 300 296 301 306 304 306 307 307 307 306 306 305 306 305 305 306 307 307 307 307 307 306 306 306 307 308 306 306 307 308 309 309 309
301 299 298 292 294 284 295 300 299 297 299 301 301 302 303 305 307 308 308 307 305 305 305 305 305 305 307 307 307 306 305 304 303 303 304 305 305 304 304 303 307 308 308 308
305 300 294 290 289 291 293 298 298 297 298 302 301 303 305 307 306 304 306 306 305 304 304 304 306 306 306 305 305 303 302 301 300 300 301 301 301 300 302 304 306 307 307 304
300 301 294 290 285 283 296 300 305 304 294 303 304 304 304 305 298 300 305 304 304 304 304 304 305 305 305 303 303 301 299 299 298 298 298 297 296 298 300 303 304 307 303 304
293 294 291 290 290 292 300 301 305 292 295 305 306 306 305 301 303 304 304 303 303 304 304 304 304 303 301 301 300 298 296 295 296 296 295 295 296 298 299 302 305 303 304 301
292 291 290 291 287 286 302 302 296 304 307 307 307 306 304 303 303 302 302 301 302 301 302 303 302 300 300 299 297 294 293 295 295 294 294 294 295 298 300 301 301 302 302 300
292 297 294 294 294 304 306 307 310 310 307 306 306 305 305 303 301 300 300 300 299 299 300 302 299 297 297 295 293 291 292 293 293 293 293 293 296 298 299 299 300 301 301 300
299 302 298 298 300 303 306 309 309 309 307 308 308 306 304 301 300 299 298 298 298 298 298 300 300 296 294 294 292 292 292 292 292 292 291 292 294 296 298 299 301 300 299 299
299 301 299 298 302 304 306 308 307 307 306 303 303 303 301 300 297 296 295 296 297 298 298 299 299 297 294 291 290 291 291 292 290 290 291 292 293 294 296 296 298 298 300 299
302 297 298 295 304 304 304 307 307 305 302 301 301 299 299 298 295 295 295 296 297 297 297 297 298 297 294 290 289 289 291 291 290 289 290 291 292 293 294 294 296 296 294 294
Wind_Speed
17 14 17 19 17 10 4 6 10 10 6 10 14 17 19 13 13 17 19 18 19 21 18 21 14 10 7 6 5 1 6 10 8 10 9 6 8 7 7 7 7 7 7 7
12 19 18 11 13 12 11 12 14 12 7 5 11 14 13 10 14 14 18 18 17 17 15 22 12 8 11 10 9 7 10 10 9 6 6 5 4 2 3 3 4 5 6 6
19 11 15 14 12 13 14 15 14 13 8 13 12 16 13 11 12 17 19 18 15 18 16 16 9 13 13 8 6 7 8 9 9 10 8 7 6 5 4 4 3 4 4 5
20 14 10 16 15 14 15 14 15 16 13 10 7 11 11 9 13 17 19 17 17 19 16 14 11 11 8 7 8 9 10 10 11 13 10 9 7 7 4 6 4 4 5 5
17 17 19 15 15 15 13 12 14 17 16 14 14 10 5 5 8 17 12 15 15 15 18 15 12 9 8 12 13 12 11 10 8 6 5 7 5 5 3 2 1 3 4 5
21 12 16 20 18 16 10 8 10 13 13 13 16 8 8 5 1 6 9 10 6 3 3 8 12 13 13 14 13 12 12 9 8 8 7 6 5 2 1 1 3 4 5 5
19 20 14 12 14 14 13 11 10 12 14 12 4 9 10 7 5 3 10 9 7 6 9 12 15 17 16 14 13 11 10 10 10 8 9 6 5 4 2 5 5 6 7 7
17 19 22 16 18 17 17 15 12 14 13 13 11 8 6 7 0 1 4 10 12 11 13 15 15 15 16 13 11 11 10 9 8 7 7 7 7 5 5 4 6 7 8 9
18 21 13 21 17 19 12 13 16 17 4 8 9 8 4 6 5 8 11 13 14 14 14 14 12 11 12 12 10 9 8 8 7 7 6 5 5 6 7 8 8 8 10 10
9 13 12 19 16 11 16 12 10 10 14 15 15 10 6 12 10 11 13 15 15 14 13 12 11 11 10 10 9 8 7 6 5 5 5 5 7 7 8 9 11 12 12 14
14 8 11 13 17 18 9 13 10 7 10 9 12 6 6 3 7 12 13 15 15 14 13 11 11 10 9 8 8 6 3 1 3 4 6 7 8 9 10 10 12 12 12 13
23 10 12 18 7 5 8 18 17 10 13 10 11 4 7 2 6 10 13 13 13 11 11 11 11 10 8 6 5 3 4 6 6 7 8 9 10 11 12 11 13 12 13 13
15 11 14 11 9 5 11 10 9 6 4 11 10 9 4 3 7 10 12 11 11 11 10 9 8 7 6 3 2 4 5 6 7 8 9 10 11 12 13 13 13 13 14 14
19 8 13 11 2 1 14 9 11 13 10 12 14 9 8 8 10 9 11 11 12 9 10 6 5 5 3 4 6 7 8 8 9 10 11 12 12 12 12 12 13 12 13 13
6 10 6 5 5 4 7 12 15 15 15 15 14 7 6 9 9 12 12 11 11 9 9 6 2 3 4 7 7 8 9 10 10 11 12 12 12 12 12 12 13 13 13 12
3 8 10 13 14 13 15 16 10 11 9 8 9 8 3 0 4 8 9 9 9 9 4 3 2 5 7 8 9 9 10 10 11 12 13 12 12 11 11 13 13 13 12 12
10 11 15 11 9 9 14 16 15 14 11 11 13 10 8 6 9 8 8 8 7 6 3 2 4 6 7 8 9 10 11 11 12 13 13 13 12 12 12 14 14 12 12 13
11 10 6 6 8 12 6 3 3 7 8 11 12 10 7 8 6 6 7 7 6 2 3 5 6 7 8 9 10 11 11 12 13 13 13 13 12 12 13 14 14 13 13 14
3 6 5 5 11 4 9 5 4 8 9 1 4 2 3 11 15 10 8 6 5 4 5 7 8 9 9 10 11 12 12 13 13 13 13 13 13 14 15 14 14 13 13 14
6 4 4 5 4 4 9 4 1 3 6 4 5 7 10 14 10 11 8 6 5 6 8 9 9 9 10 11 12 13 13 13 13 13 13 13 13 15 14 15 15 13 12 13
8 5 7 5 3 1 6 1 3 6 6 8 10 10 7 7 8 9 6 6 6 7 8 9 9 10 11 11 12 13 13 13 13 13 13 13 13 15 15 15 13 11 14 12
6 6 4 4 4 3 3 5 3 7 10 10 11 11 14 13 9 8 6 6 6 7 8 10 10 10 11 11 11 12 13 13 13 13 13 14 14 12 12 14 13 14 12 13
5 3 4 3 3 7 4 7 7 8 12 12 12 12 11 10 8 7 6 6 6 6 7 8 9 9 10 11 10 12 12 12 13 14 14 13 15 12 12 12 13 12 10 10
5 5 4 7 7 7 8 9 10 12 14 13 11 9 9 9 8 6 6 6 6 7 7 7 9 10 11 12 11 11 12 12 13 14 14 12 13 12 12 9 8 8 8 8
4 6 6 6 7 7 7 9 14 15 13 13 11 11 10 9 8 6 7 7 7 7 7 7 9 9 10 11 12 13 11 13 13 13 12 11 10 11 11 10 9 10 10 9
7 4 5 1 7 2 12 13 16 14 14 13 13 12 11 10 9 7 7 6 7 7 8 9 10 11 11 9 10 12 13 13 13 12 10 8 9 9 8 9 11 9 13 17
Wind_Direction
185 195 204 201 214 258 241 237 256 259 270 255 266 258 266 247 231 230 226 204 219 226 207 238 252 216 160 136 83 300 191 173 179 165 205 193 209 191 189 213 214 217 211 213
175 218 203 216 203 228 227 241 250 258 265 289 281 271 266 239 225 225 213 215 204 221 215 211 160 159 207 163 147 179 216 176 189 168 153 197 157 243 171 178 170 183 194 207
201 208 209 207 204 220 229 245 252 261 290 282 266 257 239 221 211 210 227 229 218 239 227 204 199 196 215 162 172 160 185 174 167 169 152 134 130 134 161 152 170 177 198 213
226 176 187 201 214 216 236 232 248 267 264 273 194 279 185 189 211 218 217 212 225 233 206 225 195 200 183 168 161 172 160 159 157 170 154 157 163 168 155 183 173 189 219 240
205 209 210 206 206 211 251 263 256 249 249 259 225 245 129 172 218 210 220 230 223 212 208 184 208 193 174 158 151 134 115 114 98 77 105 165 165 134 147 140 148 257 244 251
230 190 218 223 220 232 251 227 238 245 244 235 240 242 222 163 283 173 191 200 206 207 183 157 148 150 148 135 130 123 115 100 86 87 81 85 106 108 236 196 268 262 275 268
213 220 215 226 204 200 209 230 217 212 219 238 194 214 278 112 121 69 150 141 157 150 146 144 153 139 137 131 125 127 120 107 102 97 93 76 64 58 12 323 308 310 283 287
208 204 211 197 220 207 206 222 241 214 220 218 153 220 231 112 35 98 113 129 136 148 145 148 137 138 127 122 124 120 116 99 86 75 57 44 23 353 316 301 316 300 298 296
203 223 181 208 205 220 200 219 249 275 318 275 180 192 188 159 156 154 145 145 143 143 140 133 128 121 119 112 104 99 92 82 61 50 27 4 345 325 316 302 292 289 291 282
193 212 193 189 215 212 253 226 204 229 246 227 240 220 270 177 178 161 159 154 147 131 131 131 124 113 101 96 89 79 69 55 31 4 345 331 317 301 303 292 282 282 278 276
212 248 167 168 201 196 182 210 235 258 224 245 254 229 56 41 166 172 163 154 150 154 141 133 124 121 121 120 121 120 109 44 337 319 316 303 298 292 286 282 277 278 285 280
209 223 195 198 90 323 252 217 199 216 210 238 254 257 100 89 160 172 156 155 158 146 138 134 133 134 129 122 106 65 2 327 328 316 308 300 295 291 286 285 285 290 288 283
169 205 205 200 188 183 226 206 240 268 286 218 229 250 71 121 175 184 161 145 142 131 125 125 134 123 112 108 23 351 322 317 308 307 299 296 296 294 293 294 296 295 294 289
188 167 212 214 74 30 213 224 219 227 232 237 247 239 151 148 168 161 153 151 134 137 127 121 129 108 65 355 352 337 326 323 320 313 306 300 298 295 288 284 282 282 284 282
205 185 198 186 257 249 274 275 234 235 249 254 253 221 258 170 186 167 157 157 147 143 148 137 166 50 355 348 337 324 323 314 311 301 295 292 293 290 290 296 293 291 286 281
324 164 167 192 210 211 218 236 225 220 239 240 254 250 225 233 246 159 176 168 163 139 143 100 4 354 345 334 326 318 305 309 307 298 294 297 293 293 293 293 289 288 287 288
192 165 176 168 184 202 234 236 227 241 233 250 244 242 246 175 227 185 166 172 149 131 108 21 344 348 336 324 319 310 318 314 310 305 305 304 305 301 299 296 291 290 295 295
172 171 159 130 170 219 93 55 319 273 264 255 247 258 242 195 155 128 141 134 122 90 25 352 347 337 335 325 323 324 321 315 313 309 308 308 307 305 300 290 289 293 289 294
202 151 141 171 198 55 158 161 193 209 141 98 262 231 155 111 120 119 96 75 69 30 2 353 353 343 331 329 331 322 320 319 315 311 307 311 311 300 292 292 290 292 297 292
125 157 150 162 192 201 85 111 211 205 143 94 109 119 138 160 190 114 104 56 43 25 14 358 346 338 338 341 331 323 321 319 315 314 313 309 297 289 289 288 291 296 288 285
156 153 176 146 188 164 98 84 179 222 112 116 109 101 83 84 65 95 83 60 39 26 13 354 353 348 341 334 331 323 319 311 312 311 305 296 292 291 286 284 286 295 296 292
151 146 174 156 178 213 132 173 262 98 119 113 96 95 99 107 100 90 76 59 39 19 10 10 357 350 338 338 331 320 312 322 313 307 302 298 292 288 288 292 296 286 292 286
149 123 149 148 97 99 82 66 101 115 116 112 111 102 96 87 83 69 63 47 34 19 4 16 358 341 346 340 326 317 318 310 319 311 306 302 297 294 297 293 287 289 291 287
117 153 128 164 147 130 110 107 112 115 114 98 92 101 94 89 80 72 44 27 11 8 356 349 355 350 347 346 332 324 323 322 319 314 312 309 307 309 297 288 294 298 289 291
46 176 163 124 141 156 153 128 117 114 106 106 96 92 92 94 76 50 44 28 17 5 357 346 358 357 359 343 338 333 324 333 324 320 317 318 312 308 308 301 296 291 293 284
172 167 173 175 131 88 148 134 131 126 118 120 113 99 85 82 70 51 47 33 18 5 359 358 355 348 4 338 331 334 337 336 333 324 325 320 316 317 312 310 311 283 265 280